Location: Izdebno
(52.6670°N, 16.2170°E)
Time: 08:57:24
(UTC+02:00)

A-11 Canister half - Pass Details

Date: 26 February 2024
Orbit: 1513 x 1686 km, 47.2° (Epoch: 24 April)

Event Time Altitude Azimuth Distance (km) Brightness Sun altitude
Exits shadow 03:18:14 56° 196° (SSW) 1,927 9.1 -31.9°
Maximum altitude 03:19:36 60° 166° (SSE) 1,859 9.2 -31.7°
Drops below altitude 10° 03:29:14 10° 90° (E) 3,851 11.8 -30.4°
Sets 03:32:20 0° 87° (E) 4,814 12.5 -30.0°
